| time (UTC) | temp F | wind direction | speed MPH | gust MPH | rain 1hr in | rain 24hr in | rain mn in | humidity % | barometer mb |
| 20260502221019 | 53 | 166 | 1.0 | 2.0 | 0.00 | 0.00 | 0.00 | 51 | 1003.3 |
| 20260502220015 | 54 | 106 | 0.0 | 0.0 | 0.00 | 0.00 | 0.00 | 50 | 1003.2 |
| 20260502215002 | 54 | 79 | 1.0 | 2.0 | 0.00 | 0.00 | 0.00 | 53 | 1003.0 |
| 20260502214030 | 55 | 357 | 1.0 | 2.0 | 0.00 | 0.00 | 0.00 | 50 | 1002.9 |
| 20260502213041 | 55 | 126 | 2.0 | 2.0 | 0.00 | 0.00 | 0.00 | 50 | 1002.9 |
| 20260502212021 | 55 | 76 | 1.0 | 2.0 | 0.00 | 0.00 | 0.00 | 49 | 1002.9 |
| 20260502211024 | 54 | 180 | 3.0 | 3.0 | 0.00 | 0.00 | 0.00 | 50 | 1002.9 |
| 20260502210022 | 54 | 14 | 1.0 | 2.0 | 0.00 | 0.00 | 0.00 | 51 | 1003.0 |
| 20260502205024 | 53 | 83 | 0.0 | 0.0 | 0.00 | 0.00 | 0.00 | 55 | 1003.2 |
| 20260502204029 | 53 | 100 | 1.0 | 2.0 | 0.00 | 0.00 | 0.00 | 53 | 1003.1 |
| 20260502203045 | 54 | 105 | 0.0 | 0.0 | 0.00 | 0.00 | 0.00 | 53 | 1003.2 |
| 20260502202034 | 55 | 157 | 1.0 | 2.0 | 0.00 | 0.00 | 0.00 | 51 | 1003.2 |
| 20260502200014 | 56 | 103 | 3.0 | 4.0 | 0.00 | 0.00 | 0.00 | 46 | 1003.3 |
| 20260502194025 | 54 | 110 | 1.0 | 2.0 | 0.00 | 0.00 | 0.00 | 48 | 1003.6 |
| 20260502191001 | 55 | 104 | 1.0 | 2.0 | 0.00 | 0.00 | 0.00 | 48 | 1003.8 |
| 20260502181042 | 55 | 92 | 0.0 | 0.0 | 0.00 | 0.00 | 0.00 | 50 | 1003.8 |
| 20260502164007 | 55 | 77 | 1.0 | 3.0 | 0.00 | 0.00 | 0.00 | 52 | 1004.5 |
| 20260502163004 | 54 | 66 | 2.0 | 2.0 | 0.00 | 0.00 | 0.00 | 53 | 1004.6 |
| 20260502162004 | 54 | 141 | 1.0 | 2.0 | 0.00 | 0.00 | 0.00 | 52 | 1004.7 |
| 20260502152011 | 55 | 83 | 0.0 | 0.0 | 0.00 | 0.00 | 0.00 | 53 | 1004.7 |
| 20260502151026 | 55 | 28 | 1.0 | 2.0 | 0.00 | 0.00 | 0.00 | 51 | 1005.0 |
| 20260502122028 | 43 | 114 | 1.0 | 2.0 | 0.00 | 0.00 | 0.00 | 95 | 1004.6 |
| 20260502121005 | 42 | 117 | 1.0 | 2.0 | 0.00 | 0.00 | 0.00 | 98 | 1004.7 |
| 20260502115020 | 39 | 95 | 0.0 | 0.0 | 0.00 | 0.00 | 0.00 | 99 | 1005.0 |
| 20260502113037 | 37 | 88 | 0.0 | 0.0 | 0.00 | 0.00 | 0.00 | 99 | 1004.8 |
| 20260502112015 | 37 | 83 | 0.0 | 0.0 | 0.00 | 0.00 | 0.00 | 99 | 1004.6 |
| 20260502111031 | 37 | 83 | 0.0 | 0.0 | 0.00 | 0.00 | 0.00 | 99 | 1004.5 |
| 20260502110013 | 36 | 91 | 0.0 | 0.0 | 0.00 | 0.00 | 0.00 | 99 | 1004.7 |
| 20260502105042 | 36 | 89 | 0.0 | 0.0 | 0.00 | 0.00 | 0.00 | 99 | 1004.4 |
| 20260502104002 | 36 | 86 | 0.0 | 0.0 | 0.00 | 0.00 | 0.00 | 99 | 1004.4 |
| 20260502103003 | 36 | 81 | 0.0 | 0.0 | 0.00 | 0.00 | 0.00 | 99 | 1004.2 |
| 20260502102019 | 36 | 83 | 0.0 | 0.0 | 0.00 | 0.00 | 0.00 | 99 | 1004.7 |
| 20260502101039 | 36 | 91 | 0.0 | 0.0 | 0.00 | 0.00 | 0.00 | 99 | 1004.7 |
| 20260502071030 | 39 | 86 | 0.0 | 0.0 | 0.00 | 0.00 | 0.00 | 97 | 1004.6 |
| 20260502070017 | 39 | 81 | 0.0 | 0.0 | 0.00 | 0.00 | 0.00 | 97 | 1004.5 |
| 20260502065007 | 39 | 83 | 0.0 | 0.0 | 0.00 | 0.00 | 0.00 | 96 | 1004.4 |
| 20260502064043 | 40 | 80 | 0.0 | 0.0 | 0.00 | 0.00 | 0.00 | 96 | 1004.7 |
| 20260502063029 | 40 | 70 | 1.0 | 2.0 | 0.00 | 0.00 | 0.00 | 95 | 1004.6 |
| 20260502062011 | 40 | 64 | 0.0 | 0.0 | 0.00 | 0.00 | 0.00 | 94 | 1005.0 |
| 20260502061013 | 40 | 80 | 0.0 | 0.0 | 0.00 | 0.00 | 0.00 | 93 | 1005.0 |
| 20260502060003 | 41 | 66 | 1.0 | 2.0 | 0.00 | 0.00 | 0.00 | 93 | 1005.0 |
| 20260502055011 | 41 | 79 | 0.0 | 0.0 | 0.00 | 0.00 | 0.00 | 91 | 1004.8 |
| 20260502054024 | 42 | 76 | 0.0 | 0.0 | 0.00 | 0.00 | 0.00 | 90 | 1004.6 |
| 20260502053036 | 42 | 71 | 1.0 | 2.0 | 0.00 | 0.00 | 0.00 | 89 | 1005.0 |
| 20260502051010 | 43 | 81 | 0.0 | 0.0 | 0.00 | 0.00 | 0.00 | 86 | 1005.1 |
| 20260502050021 | 44 | 80 | 0.0 | 0.0 | 0.00 | 0.00 | 0.00 | 85 | 1005.3 |
| 20260502045013 | 44 | 83 | 0.0 | 0.0 | 0.00 | 0.00 | 0.00 | 83 | 1005.1 |
| 20260502044014 | 45 | 78 | 0.0 | 0.0 | 0.00 | 0.00 | 0.00 | 82 | 1005.3 |
| 20260502043009 | 45 | 60 | 1.0 | 2.0 | 0.00 | 0.00 | 0.00 | 82 | 1005.4 |
| 20260502042006 | 45 | 61 | 1.0 | 2.0 | 0.00 | 0.00 | 0.00 | 80 | 1005.2 |
| 20260502041004 | 46 | 67 | 1.0 | 2.0 | 0.00 | 0.00 | 0.00 | 79 | 1005.1 |
| 20260502040027 | 46 | 91 | 0.0 | 0.0 | 0.00 | 0.00 | 0.00 | 77 | 1005.1 |
| 20260502035020 | 47 | 68 | 1.0 | 2.0 | 0.00 | 0.00 | 0.00 | 77 | 1005.1 |
| 20260502034012 | 47 | 83 | 0.0 | 0.0 | 0.00 | 0.00 | 0.00 | 75 | 1004.9 |
| 20260502032009 | 47 | 72 | 0.0 | 0.0 | 0.00 | 0.00 | 0.00 | 74 | 1005.4 |
| 20260502031015 | 48 | 83 | 0.0 | 0.0 | 0.00 | 0.00 | 0.00 | 74 | 1005.2 |
| 20260502030009 | 48 | 51 | 1.0 | 2.0 | 0.00 | 0.00 | 0.00 | 73 | 1005.2 |
| 20260502025029 | 48 | 84 | 0.0 | 0.0 | 0.00 | 0.00 | 0.00 | 73 | 1005.1 |
| 20260502024017 | 49 | 54 | 1.0 | 2.0 | 0.00 | 0.00 | 0.00 | 71 | 1004.9 |
| 20260502023023 | 49 | 109 | 1.0 | 2.0 | 0.00 | 0.00 | 0.00 | 71 | 1005.1 |
| 20260502022026 | 49 | 101 | 1.0 | 2.0 | 0.00 | 0.00 | 0.00 | 70 | 1005.0 |
| 20260502020023 | 50 | 83 | 2.0 | 2.0 | 0.00 | 0.00 | 0.00 | 70 | 1004.4 |
| 20260502013038 | 51 | 150 | 2.0 | 3.0 | 0.00 | 0.00 | 0.00 | 72 | 1003.7 |
| 20260502012046 | 52 | 249 | 3.0 | 3.0 | 0.00 | 0.00 | 0.00 | 73 | 1003.4 |
| 20260502011041 | 52 | 176 | 1.0 | 2.0 | 0.00 | 0.00 | 0.00 | 72 | 1003.6 |
| 20260502010017 | 52 | 47 | 3.0 | 3.0 | 0.00 | 0.00 | 0.00 | 73 | 1003.2 |
| 20260502005022 | 52 | 101 | 0.0 | 0.0 | 0.00 | 0.00 | 0.00 | 71 | 1003.1 |
| 20260502003024 | 52 | 96 | 0.0 | 0.0 | 0.00 | 0.00 | 0.00 | 72 | 1002.5 |
| 20260502002006 | 53 | 65 | 1.0 | 2.0 | 0.00 | 0.00 | 0.00 | 73 | 1002.4 |
| 20260502001003 | 53 | 79 | 0.0 | 0.0 | 0.00 | 0.00 | 0.00 | 74 | 1002.3 |
| 20260502000016 | 53 | 86 | 0.0 | 0.0 | 0.00 | 0.00 | 0.00 | 74 | 1002.0 |
| 20260501235032 | 53 | 78 | 0.0 | 0.0 | 0.00 | 0.00 | 0.00 | 74 | 1002.2 |
| 20260501234044 | 53 | 90 | 0.0 | 0.0 | 0.00 | 0.00 | 0.00 | 72 | 1001.7 |
| 20260501233032 | 54 | 89 | 0.0 | 0.0 | 0.00 | 0.00 | 0.00 | 71 | 1001.3 |
| 20260501232005 | 54 | 107 | 0.0 | 0.0 | 0.00 | 0.00 | 0.00 | 71 | 1001.3 |
| 20260501231044 | 54 | 100 | 0.0 | 0.0 | 0.00 | 0.00 | 0.00 | 71 | 1001.6 |
| 20260501225012 | 54 | 94 | 0.0 | 0.0 | 0.00 | 0.00 | 0.00 | 68 | 1001.7 |
| 20260501224007 | 55 | 83 | 1.0 | 2.0 | 0.00 | 0.00 | 0.00 | 67 | 1001.4 |
| 20260501223002 | 55 | 75 | 1.0 | 2.0 | 0.00 | 0.00 | 0.00 | 66 | 1001.1 |
| 20260501222002 | 56 | 42 | 1.0 | 2.0 | 0.00 | 0.00 | 0.00 | 67 | 1001.1 |